| time (UTC) | temp F | wind direction | speed knots | gust knots | rain 1hr in | rain 24hr in | rain mn in | humidity % | barometer mb |
| 20260506182134 | 79 | 270 | 1.7 | 7.0 | 0.00 | 0.00 | 0.00 | 69 | 1009.7 |
| 20260506181624 | 79 | 45 | 1.7 | 7.0 | 0.00 | 0.00 | 0.00 | 67 | 1009.4 |
| 20260506181114 | 79 | 23 | 3.5 | 7.0 | 0.00 | 0.00 | 0.00 | 67 | 1009.4 |
| 20260506180056 | 79 | 45 | 1.7 | 6.1 | 0.00 | 0.00 | 0.00 | 68 | 1009.7 |
| 20260506175544 | 79 | 338 | 1.7 | 7.0 | 0.00 | 0.00 | 0.00 | 65 | 1010.0 |
| 20260506175033 | 80 | 135 | 3.5 | 7.0 | 0.00 | 0.00 | 0.00 | 65 | 1010.1 |
| 20260506174522 | 80 | 68 | 3.5 | 7.0 | 0.00 | 0.00 | 0.00 | 65 | 1010.1 |
| 20260506174012 | 80 | 23 | 1.7 | 7.0 | 0.00 | 0.00 | 0.00 | 66 | 1010.0 |
| 20260506173504 | 80 | 23 | 3.5 | 6.1 | 0.00 | 0.00 | 0.00 | 65 | 1010.1 |
| 20260506172952 | 80 | 45 | 1.7 | 7.0 | 0.00 | 0.00 | 0.00 | 64 | 1010.1 |
| 20260506172443 | 80 | 338 | 3.5 | 7.0 | 0.00 | 0.00 | 0.00 | 63 | 1010.1 |
| 20260506171423 | 80 | 45 | 2.6 | 6.1 | 0.00 | 0.00 | 0.00 | 62 | 1010.2 |
| 20260506170913 | 80 | 315 | 1.7 | 6.1 | 0.00 | 0.00 | 0.00 | 62 | 1010.3 |
| 20260506165341 | 80 | 23 | 3.5 | 7.0 | 0.00 | 0.00 | 0.00 | 59 | 1011.0 |
| 20260506164832 | 80 | 338 | 3.5 | 6.1 | 0.00 | 0.00 | 0.00 | 58 | 1010.9 |
| 20260506164323 | 80 | 338 | 2.6 | 6.1 | 0.00 | 0.00 | 0.00 | 60 | 1011.2 |
| 20260506163301 | 79 | 23 | 1.7 | 5.2 | 0.00 | 0.00 | 0.00 | 61 | 1011.0 |
| 20260506162751 | 79 | 270 | 0.0 | 7.8 | 0.00 | 0.00 | 0.00 | 60 | 1011.1 |
| 20260506162241 | 79 | 270 | 1.7 | 7.8 | 0.00 | 0.00 | 0.00 | 57 | 1011.2 |
| 20260506161735 | 79 | 0 | 2.6 | 7.0 | 0.00 | 0.00 | 0.00 | 58 | 1011.4 |
| 20260506161220 | 78 | 23 | 3.5 | 7.0 | 0.00 | 0.00 | 0.00 | 57 | 1011.1 |
| 20260506160714 | 78 | 90 | 1.7 | 6.1 | 0.00 | 0.00 | 0.00 | 60 | 1011.5 |
| 20260506160201 | 78 | 315 | 2.6 | 7.0 | 0.00 | 0.00 | 0.00 | 61 | 1011.6 |
| 20260506155650 | 78 | 315 | 3.5 | 7.0 | 0.00 | 0.00 | 0.00 | 62 | 1011.8 |
| 20260506155142 | 78 | 315 | 3.5 | 7.0 | 0.00 | 0.00 | 0.00 | 60 | 1011.6 |
| 20260506153610 | 78 | 135 | 2.6 | 7.8 | 0.00 | 0.00 | 0.00 | 64 | 1012.0 |
| 20260506153100 | 78 | 0 | 2.6 | 9.6 | 0.00 | 0.00 | 0.00 | 66 | 1011.8 |
| 20260506152551 | 77 | 45 | 3.5 | 9.6 | 0.00 | 0.00 | 0.00 | 64 | 1012.1 |
| 20260506151529 | 77 | 315 | 3.5 | 7.0 | 0.00 | 0.00 | 0.00 | 64 | 1012.2 |
| 20260506151019 | 76 | 68 | 3.5 | 7.8 | 0.00 | 0.00 | 0.00 | 63 | 1012.2 |
| 20260506150510 | 76 | 23 | 3.5 | 7.8 | 0.00 | 0.00 | 0.00 | 66 | 1012.4 |
| 20260506150001 | 76 | 113 | 2.6 | 5.2 | 0.00 | 0.00 | 0.00 | 64 | 1012.6 |
| 20260506145450 | 76 | 0 | 1.7 | 6.1 | 0.00 | 0.00 | 0.00 | 65 | 1012.9 |
| 20260506144939 | 76 | 0 | 3.5 | 7.0 | 0.00 | 0.00 | 0.00 | 66 | 1013.0 |
| 20260506142859 | 74 | 45 | 0.9 | 6.1 | 0.00 | 0.00 | 0.00 | 70 | 1013.1 |
| 20260506142348 | 72 | 0 | 1.7 | 6.1 | 0.00 | 0.00 | 0.00 | 73 | 1013.3 |
| 20260506141838 | 71 | 315 | 1.7 | 3.5 | 0.00 | 0.00 | 0.00 | 79 | 1013.3 |
| 20260506141328 | 70 | 225 | 1.7 | 3.5 | 0.00 | 0.00 | 0.00 | 80 | 1013.4 |
| 20260506140308 | 69 | 225 | 1.7 | 3.5 | 0.00 | 0.00 | 0.00 | 83 | 1013.3 |
| 20260506135758 | 68 | 270 | 1.7 | 3.5 | 0.00 | 0.00 | 0.00 | 84 | 1013.5 |
| 20260506135248 | 67 | 180 | 1.7 | 3.5 | 0.00 | 0.00 | 0.00 | 87 | 1013.5 |
| 20260506134738 | 67 | 225 | 1.7 | 3.5 | 0.00 | 0.00 | 0.00 | 90 | 1013.4 |
| 20260506134229 | 66 | 90 | 0.9 | 1.7 | 0.00 | 0.00 | 0.00 | 91 | 1013.8 |
| 20260506133717 | 65 | 158 | 0.9 | 1.7 | 0.00 | 0.00 | 0.00 | 93 | 1013.5 |
| 20260506133208 | 64 | 158 | 0.9 | 1.7 | 0.00 | 0.00 | 0.00 | 95 | 1013.6 |
| 20260506132657 | 63 | 180 | 1.7 | 1.7 | 0.00 | 0.00 | 0.00 | 96 | 1013.6 |
| 20260506131639 | 62 | 180 | 0.9 | 1.7 | 0.00 | 0.00 | 0.00 | 97 | 1013.5 |
| 20260506131127 | 61 | 0 | 1.7 | 1.7 | 0.00 | 0.00 | 0.00 | 97 | 1013.4 |
| 20260506130617 | 60 | 23 | 0.0 | 1.7 | 0.00 | 0.00 | 0.00 | 97 | 1013.6 |
| 20260506130107 | 59 | 23 | 0.0 | 1.7 | 0.00 | 0.00 | 0.00 | 97 | 1014.0 |
| 20260506125557 | 59 | 180 | 0.0 | 1.7 | 0.00 | 0.00 | 0.00 | 97 | 1013.4 |
| 20260506125048 | 58 | 45 | 0.9 | 1.7 | 0.00 | 0.00 | 0.00 | 97 | 1013.9 |
| 20260506124536 | 57 | 90 | 0.0 | 1.7 | 0.00 | 0.00 | 0.00 | 97 | 1013.9 |
| 20260506123519 | 55 | 45 | 0.0 | 1.7 | 0.00 | 0.00 | 0.00 | 97 | 1013.9 |
| 20260506123013 | 54 | 45 | 0.0 | 1.7 | 0.00 | 0.00 | 0.00 | 97 | 1013.8 |
| 20260506122457 | 53 | 293 | 0.0 | 1.7 | 0.00 | 0.00 | 0.00 | 97 | 1013.8 |
| 20260506121946 | 53 | 68 | 0.0 | 1.7 | 0.00 | 0.00 | 0.00 | 97 | 1013.8 |
| 20260506121435 | 53 | 0 | 1.7 | 1.7 | 0.00 | 0.00 | 0.00 | 97 | 1014.0 |
| 20260506120925 | 52 | 113 | 0.0 | 0.0 | 0.00 | 0.00 | 0.00 | 97 | 1014.0 |
| 20260506120415 | 52 | 90 | 0.0 | 1.7 | 0.00 | 0.00 | 0.00 | 96 | 1014.1 |
| 20260506115907 | 51 | 68 | 0.0 | 1.7 | 0.00 | 0.00 | 0.00 | 96 | 1013.9 |
| 20260506115355 | 51 | 23 | 1.7 | 1.7 | 0.00 | 0.00 | 0.00 | 97 | 1014.0 |
| 20260506114335 | 51 | 68 | 0.9 | 3.5 | 0.00 | 0.00 | 0.00 | 96 | 1014.0 |
| 20260506113825 | 50 | 45 | 1.7 | 3.5 | 0.00 | 0.00 | 0.00 | 96 | 1014.0 |
| 20260506113316 | 49 | 23 | 0.0 | 1.7 | 0.00 | 0.00 | 0.00 | 96 | 1014.2 |
| 20260506112804 | 49 | 0 | 0.0 | 1.7 | 0.00 | 0.00 | 0.00 | 96 | 1014.3 |
| 20260506112255 | 49 | 0 | 0.9 | 1.7 | 0.00 | 0.00 | 0.00 | 96 | 1014.4 |
| 20260506111744 | 49 | 338 | 0.0 | 1.7 | 0.00 | 0.00 | 0.00 | 96 | 1014.2 |
| 20260506111234 | 49 | 90 | 0.0 | 1.7 | 0.00 | 0.00 | 0.00 | 96 | 1014.1 |
| 20260506110726 | 49 | 45 | 0.0 | 1.7 | 0.00 | 0.00 | 0.00 | 96 | 1014.0 |
| 20260506105153 | 50 | 23 | 0.0 | 1.7 | 0.00 | 0.00 | 0.00 | 96 | 1014.2 |
| 20260506104644 | 50 | 23 | 1.7 | 1.7 | 0.00 | 0.00 | 0.00 | 96 | 1014.1 |
| 20260506104135 | 50 | 23 | 0.0 | 1.7 | 0.00 | 0.00 | 0.00 | 96 | 1013.8 |
| 20260506103114 | 49 | 0 | 0.0 | 0.0 | 0.00 | 0.00 | 0.00 | 95 | 1013.8 |
| 20260506102603 | 49 | 0 | 0.0 | 0.0 | 0.00 | 0.00 | 0.00 | 95 | 1014.0 |
| 20260506102054 | 49 | 0 | 0.0 | 0.0 | 0.00 | 0.00 | 0.00 | 95 | 1013.6 |
| 20260506101544 | 49 | 45 | 0.0 | 0.0 | 0.00 | 0.00 | 0.00 | 95 | 1013.9 |
| 20260506100012 | 50 | 23 | 0.0 | 1.7 | 0.00 | 0.00 | 0.00 | 95 | 1013.9 |
| 20260506095502 | 50 | 23 | 0.9 | 1.7 | 0.00 | 0.00 | 0.00 | 95 | 1013.9 |
| 20260506094954 | 50 | 23 | 0.0 | 1.7 | 0.00 | 0.00 | 0.00 | 95 | 1013.8 |
| 20260506094439 | 50 | 45 | 0.9 | 1.7 | 0.00 | 0.00 | 0.00 | 95 | 1014.0 |
| 20260506093932 | 50 | 0 | 1.7 | 1.7 | 0.00 | 0.00 | 0.00 | 95 | 1013.8 |
| 20260506093423 | 50 | 23 | 1.7 | 1.7 | 0.00 | 0.00 | 0.00 | 95 | 1013.6 |
| 20260506092912 | 51 | 23 | 0.0 | 0.0 | 0.00 | 0.00 | 0.00 | 95 | 1013.5 |
| 20260506091342 | 51 | 45 | 0.0 | 1.7 | 0.00 | 0.00 | 0.00 | 95 | 1013.9 |
| 20260506090321 | 51 | 113 | 0.0 | 1.7 | 0.00 | 0.00 | 0.00 | 95 | 1013.5 |
| 20260506085811 | 51 | 158 | 1.7 | 1.7 | 0.00 | 0.00 | 0.00 | 95 | 1013.6 |
| 20260506084751 | 52 | 45 | 0.9 | 1.7 | 0.00 | 0.00 | 0.00 | 95 | 1013.6 |
| 20260506084242 | 53 | 0 | 0.0 | 0.0 | 0.00 | 0.00 | 0.00 | 95 | 1013.6 |
| 20260506083731 | 53 | 68 | 0.0 | 0.0 | 0.00 | 0.00 | 0.00 | 95 | 1013.9 |
| 20260506083221 | 53 | 45 | 0.0 | 0.0 | 0.00 | 0.00 | 0.00 | 95 | 1013.8 |
| 20260506082710 | 53 | 90 | 0.0 | 0.0 | 0.00 | 0.00 | 0.00 | 95 | 1013.6 |
| 20260506081141 | 54 | 158 | 0.0 | 1.7 | 0.00 | 0.00 | 0.00 | 95 | 1014.0 |
| 20260506080630 | 54 | 68 | 0.0 | 1.7 | 0.00 | 0.00 | 0.00 | 95 | 1013.8 |
| 20260506080120 | 54 | 45 | 0.0 | 1.7 | 0.00 | 0.00 | 0.00 | 95 | 1014.0 |
| 20260506073529 | 55 | 23 | 0.0 | 1.7 | 0.00 | 0.00 | 0.00 | 95 | 1014.2 |
| 20260506073019 | 55 | 45 | 0.9 | 1.7 | 0.00 | 0.00 | 0.00 | 95 | 1014.5 |
| 20260506072511 | 55 | 45 | 0.9 | 1.7 | 0.00 | 0.00 | 0.00 | 95 | 1014.6 |
| 20260506071449 | 56 | 90 | 0.0 | 0.0 | 0.00 | 0.00 | 0.00 | 95 | 1014.5 |
| 20260506070939 | 56 | 68 | 0.0 | 0.0 | 0.00 | 0.00 | 0.00 | 95 | 1014.4 |
| 20260506070429 | 57 | 45 | 0.0 | 0.0 | 0.00 | 0.00 | 0.00 | 95 | 1014.9 |
| 20260506062308 | 58 | 293 | 0.0 | 1.7 | 0.00 | 0.00 | 0.00 | 95 | 1015.4 |
| 20260506061758 | 58 | 23 | 0.0 | 1.7 | 0.00 | 0.00 | 0.00 | 95 | 1015.4 |
| 20260506061247 | 58 | 248 | 1.7 | 1.7 | 0.00 | 0.00 | 0.00 | 95 | 1015.6 |
| 20260506060147 | 58 | 23 | 0.9 | 0.0 | 0.00 | 0.00 | 0.00 | 95 | 1015.5 |
| 20260506051258 | 56 | 248 | 0.9 | 1.7 | 0.00 | 0.00 | 0.00 | 95 | 1016.0 |
| 20260506050747 | 56 | 338 | 0.9 | 1.7 | 0.00 | 0.00 | 0.00 | 95 | 1016.1 |
| 20260506050236 | 56 | 338 | 0.0 | 1.7 | 0.00 | 0.00 | 0.00 | 95 | 1016.1 |
| 20260506044708 | 56 | 338 | 0.0 | 1.7 | 0.00 | 0.00 | 0.00 | 94 | 1016.3 |
| 20260506043646 | 56 | 0 | 1.7 | 1.7 | 0.00 | 0.00 | 0.00 | 94 | 1016.8 |
| 20260506043136 | 56 | 45 | 0.9 | 1.7 | 0.00 | 0.00 | 0.00 | 94 | 1016.5 |
| 20260506041606 | 55 | 45 | 0.0 | 0.0 | 0.00 | 0.00 | 0.00 | 93 | 1016.9 |
| 20260506040546 | 56 | 0 | 0.0 | 1.7 | 0.00 | 0.00 | 0.00 | 93 | 1017.1 |
| 20260506040035 | 56 | 113 | 0.0 | 0.0 | 0.00 | 0.00 | 0.00 | 93 | 1016.9 |
| 20260506035019 | 56 | 90 | 0.0 | 0.0 | 0.00 | 0.00 | 0.00 | 93 | 1017.1 |
| 20260506034512 | 56 | 180 | 0.0 | 0.0 | 0.00 | 0.00 | 0.00 | 93 | 1017.0 |
| 20260506033954 | 56 | 203 | 0.0 | 1.7 | 0.00 | 0.00 | 0.00 | 93 | 1017.0 |
| 20260506033444 | 56 | 293 | 0.0 | 1.7 | 0.00 | 0.00 | 0.00 | 93 | 1016.9 |
| 20260506032936 | 56 | 23 | 1.7 | 1.7 | 0.00 | 0.00 | 0.00 | 93 | 1017.1 |
| 20260506032425 | 57 | 45 | 1.7 | 1.7 | 0.00 | 0.00 | 0.00 | 93 | 1017.1 |
| 20260506031404 | 57 | 180 | 1.7 | 1.7 | 0.00 | 0.00 | 0.00 | 92 | 1017.0 |
| 20260506030854 | 57 | 0 | 0.0 | 1.7 | 0.00 | 0.00 | 0.00 | 93 | 1017.3 |
| 20260506030346 | 57 | 0 | 1.7 | 1.7 | 0.00 | 0.00 | 0.00 | 93 | 1017.2 |
| 20260506025834 | 58 | 68 | 0.9 | 1.7 | 0.00 | 0.00 | 0.00 | 93 | 1017.2 |
| 20260506025324 | 58 | 0 | 0.0 | 1.7 | 0.00 | 0.00 | 0.00 | 92 | 1017.3 |
| 20260506024813 | 58 | 68 | 0.0 | 1.7 | 0.00 | 0.00 | 0.00 | 92 | 1017.2 |
| 20260506023755 | 58 | 0 | 1.7 | 1.7 | 0.00 | 0.00 | 0.00 | 92 | 1017.6 |
| 20260506023244 | 58 | 90 | 0.0 | 1.7 | 0.00 | 0.00 | 0.00 | 92 | 1017.7 |
| 20260506021713 | 58 | 45 | 0.0 | 3.5 | 0.00 | 0.00 | 0.00 | 92 | 1017.7 |
| 20260506021204 | 58 | 68 | 0.9 | 3.5 | 0.00 | 0.00 | 0.00 | 92 | 1017.4 |
| 20260506020653 | 58 | 23 | 1.7 | 1.7 | 0.00 | 0.00 | 0.00 | 91 | 1017.7 |
| 20260506020143 | 58 | 68 | 0.0 | 3.5 | 0.00 | 0.00 | 0.00 | 91 | 1017.7 |
| 20260506015632 | 58 | 180 | 1.7 | 3.5 | 0.00 | 0.00 | 0.00 | 91 | 1017.6 |
| 20260506015122 | 59 | 23 | 2.6 | 3.5 | 0.00 | 0.00 | 0.00 | 92 | 1017.4 |
| 20260506014614 | 59 | 248 | 0.0 | 1.7 | 0.00 | 0.00 | 0.00 | 92 | 1017.4 |
| 20260506014102 | 59 | 68 | 0.9 | 3.5 | 0.00 | 0.00 | 0.00 | 91 | 1017.4 |
| 20260506013553 | 59 | 0 | 1.7 | 3.5 | 0.00 | 0.00 | 0.00 | 91 | 1017.2 |
| 20260506013042 | 59 | 90 | 0.9 | 3.5 | 0.00 | 0.00 | 0.00 | 92 | 1017.2 |
| 20260506012532 | 59 | 90 | 1.7 | 3.5 | 0.00 | 0.00 | 0.00 | 91 | 1017.1 |
| 20260506012023 | 59 | 45 | 0.9 | 3.5 | 0.00 | 0.00 | 0.00 | 91 | 1017.1 |
| 20260506011514 | 59 | 23 | 0.9 | 1.7 | 0.00 | 0.00 | 0.00 | 90 | 1017.5 |
| 20260506011002 | 59 | 113 | 0.9 | 3.5 | 0.00 | 0.00 | 0.00 | 90 | 1017.2 |
| 20260506010452 | 59 | 225 | 1.7 | 3.5 | 0.00 | 0.00 | 0.00 | 91 | 1017.1 |
| 20260506005942 | 60 | 45 | 1.7 | 1.7 | 0.00 | 0.00 | 0.00 | 91 | 1017.1 |
| 20260506005433 | 59 | 45 | 0.0 | 3.5 | 0.00 | 0.00 | 0.00 | 91 | 1017.1 |
| 20260506004921 | 60 | 45 | 0.0 | 3.5 | 0.00 | 0.00 | 0.00 | 91 | 1016.9 |
| 20260506004411 | 60 | 23 | 1.7 | 1.7 | 0.00 | 0.00 | 0.00 | 91 | 1017.3 |
| 20260506003351 | 60 | 338 | 0.9 | 3.5 | 0.00 | 0.00 | 0.00 | 91 | 1016.9 |
| 20260506002842 | 60 | 23 | 1.7 | 3.5 | 0.00 | 0.00 | 0.00 | 92 | 1017.1 |
| 20260506002331 | 59 | 0 | 1.7 | 1.7 | 0.00 | 0.00 | 0.00 | 92 | 1017.2 |
| 20260506001821 | 59 | 23 | 1.7 | 1.7 | 0.00 | 0.00 | 0.00 | 91 | 1017.2 |
| 20260506001311 | 59 | 0 | 0.0 | 1.7 | 0.00 | 0.00 | 0.00 | 91 | 1016.6 |
| 20260506000251 | 60 | 203 | 1.7 | 3.5 | 0.00 | 0.00 | 0.00 | 90 | 1016.6 |
| 20260505235230 | 60 | 23 | 1.7 | 1.7 | 0.00 | 0.00 | 0.00 | 90 | 1016.6 |
| 20260505234719 | 60 | 180 | 1.7 | 1.7 | 0.00 | 0.00 | 0.00 | 89 | 1016.8 |
| 20260505234210 | 61 | 90 | 0.0 | 1.7 | 0.00 | 0.00 | 0.00 | 90 | 1016.5 |
| 20260505233150 | 61 | 68 | 0.9 | 1.7 | 0.00 | 0.00 | 0.00 | 90 | 1016.3 |
| 20260505232640 | 61 | 23 | 0.0 | 1.7 | 0.00 | 0.00 | 0.00 | 89 | 1016.1 |
| 20260505232129 | 61 | 113 | 1.7 | 1.7 | 0.00 | 0.00 | 0.00 | 88 | 1016.1 |
| 20260505231619 | 62 | 248 | 0.9 | 3.5 | 0.00 | 0.00 | 0.00 | 88 | 1016.3 |
| 20260505231110 | 62 | 23 | 0.9 | 3.5 | 0.00 | 0.00 | 0.00 | 87 | 1016.0 |
| 20260505230559 | 62 | 338 | 0.9 | 3.5 | 0.00 | 0.00 | 0.00 | 87 | 1016.0 |
| 20260505230056 | 62 | 23 | 1.7 | 3.5 | 0.00 | 0.00 | 0.00 | 86 | 1016.2 |
| 20260505225029 | 63 | 68 | 0.0 | 1.7 | 0.00 | 0.00 | 0.00 | 86 | 1016.1 |
| 20260505224520 | 63 | 315 | 0.0 | 1.7 | 0.00 | 0.00 | 0.00 | 85 | 1016.2 |
| 20260505223458 | 64 | 0 | 0.0 | 1.7 | 0.00 | 0.00 | 0.00 | 85 | 1016.0 |
| 20260505222948 | 64 | 338 | 0.9 | 1.7 | 0.00 | 0.00 | 0.00 | 84 | 1016.0 |
| 20260505220907 | 65 | 90 | 1.7 | 1.7 | 0.00 | 0.00 | 0.00 | 83 | 1015.8 |
| 20260505220358 | 66 | 68 | 0.9 | 1.7 | 0.00 | 0.00 | 0.00 | 82 | 1015.5 |
| 20260505215848 | 66 | 68 | 1.7 | 1.7 | 0.00 | 0.00 | 0.00 | 81 | 1015.3 |
| 20260505215339 | 67 | 68 | 0.0 | 1.7 | 0.00 | 0.00 | 0.00 | 80 | 1015.4 |
| 20260505214827 | 68 | 68 | 0.9 | 1.7 | 0.00 | 0.00 | 0.00 | 79 | 1015.2 |
| 20260505213257 | 70 | 113 | 0.0 | 0.0 | 0.00 | 0.00 | 0.00 | 75 | 1015.1 |
| 20260505212749 | 71 | 90 | 0.0 | 1.7 | 0.00 | 0.00 | 0.00 | 73 | 1015.0 |
| 20260505212237 | 71 | 68 | 0.0 | 3.5 | 0.00 | 0.00 | 0.00 | 72 | 1014.9 |
| 20260505211727 | 72 | 203 | 0.9 | 3.5 | 0.00 | 0.00 | 0.00 | 70 | 1015.0 |
| 20260505211216 | 73 | 203 | 1.7 | 3.5 | 0.00 | 0.00 | 0.00 | 69 | 1014.9 |
| 20260505210706 | 73 | 203 | 1.7 | 3.5 | 0.00 | 0.00 | 0.00 | 68 | 1014.9 |
| 20260505210158 | 73 | 248 | 1.7 | 3.5 | 0.00 | 0.00 | 0.00 | 68 | 1014.8 |
| 20260505205136 | 74 | 180 | 1.7 | 3.5 | 0.00 | 0.00 | 0.00 | 64 | 1014.5 |
| 20260505203607 | 76 | 203 | 1.7 | 6.1 | 0.00 | 0.00 | 0.00 | 60 | 1014.3 |
| 20260505201525 | 78 | 225 | 2.6 | 6.1 | 0.00 | 0.00 | 0.00 | 57 | 1014.2 |
| 20260505201017 | 79 | 180 | 2.6 | 6.1 | 0.00 | 0.00 | 0.00 | 56 | 1014.4 |
| 20260505200505 | 79 | 248 | 3.5 | 6.1 | 0.00 | 0.00 | 0.00 | 56 | 1014.1 |
| 20260505195955 | 80 | 203 | 3.5 | 6.1 | 0.00 | 0.00 | 0.00 | 54 | 1014.1 |
| 20260505195445 | 80 | 248 | 1.7 | 3.5 | 0.00 | 0.00 | 0.00 | 56 | 1014.1 |
| 20260505194935 | 81 | 248 | 1.7 | 5.2 | 0.00 | 0.00 | 0.00 | 54 | 1013.9 |
| 20260505193914 | 81 | 180 | 4.3 | 6.1 | 0.00 | 0.00 | 0.00 | 52 | 1014.1 |
| 20260505193405 | 81 | 203 | 2.6 | 5.2 | 0.00 | 0.00 | 0.00 | 52 | 1014.1 |
| 20260505192854 | 81 | 203 | 2.6 | 6.1 | 0.00 | 0.00 | 0.00 | 53 | 1014.2 |
| 20260505192344 | 81 | 203 | 3.5 | 7.0 | 0.00 | 0.00 | 0.00 | 50 | 1014.0 |
| 20260505191835 | 81 | 180 | 4.3 | 7.0 | 0.00 | 0.00 | 0.00 | 50 | 1014.1 |
| 20260505191326 | 82 | 180 | 3.5 | 6.1 | 0.00 | 0.00 | 0.00 | 52 | 1014.0 |
| 20260505190813 | 82 | 203 | 1.7 | 7.0 | 0.00 | 0.00 | 0.00 | 51 | 1014.2 |
| 20260505190303 | 82 | 248 | 2.6 | 7.0 | 0.00 | 0.00 | 0.00 | 52 | 1013.9 |
| 20260505185754 | 82 | 203 | 1.7 | 6.1 | 0.00 | 0.00 | 0.00 | 53 | 1014.0 |
| 20260505185248 | 82 | 225 | 2.6 | 6.1 | 0.00 | 0.00 | 0.00 | 52 | 1014.1 |
| 20260505184733 | 82 | 158 | 4.3 | 6.1 | 0.00 | 0.00 | 0.00 | 50 | 1014.2 |
| 20260505184223 | 82 | 248 | 1.7 | 6.1 | 0.00 | 0.00 | 0.00 | 52 | 1014.1 |
| 20260505183713 | 82 | 203 | 1.7 | 6.1 | 0.00 | 0.00 | 0.00 | 52 | 1014.1 |
| 20260505183203 | 82 | 180 | 3.5 | 7.0 | 0.00 | 0.00 | 0.00 | 53 | 1014.3 |
| 20260505182654 | 82 | 158 | 3.5 | 7.0 | 0.00 | 0.00 | 0.00 | 52 | 1014.3 |